Weather in Baden-Baden

Germany     48˚45′36″N   8˚14′24″E
temp.,
°C
wind,
m/s
gust,
m/s
humid.,
%
clouds,
%
prec.,
mm/h
press.,
hPa
HPBL,
m
28 november, sat
sat2801:00+3˚ese11660 0.0 102025
04:00+2˚e12610 0.0 102026
07:00+2˚ese11630 0.0 102027
10:00+5˚ne12560 0.0 102077
13:00+8˚ne24490 0.0 1018321
16:00+5˚ene255815 0.0 1018147
19:00+2˚ene34707 0.0 1019121
22:00+2˚e238040 0.0 1020107
29 november, sun
sun2901:00+2˚ene238570 0.0 1020103
04:00ene238896 0.0 102176
07:00−1˚ene238797 0.0 102275
10:00+1˚ene237399 0.0 1023213
13:00+4˚ne345561 0.0 1023456
16:00+2˚ene23670 0.0 102391
19:00−1˚ese22780 0.0 102544
22:00−1˚ese22780 0.0 102533
30 november, mon
mon3001:00−1˚se22730 0.0 102634
04:00−2˚se11730 0.0 102625
07:00−2˚ese01750 0.0 102721
10:00+1˚wnw11630 0.0 1027145
13:00+3˚wnw11580 0.0 1026311
16:00wsw11760 0.0 102521
19:00−1˚ssw22800 0.0 102630
22:00−1˚ssw23710 0.0 102547
1 december, tue
tue101:00sw366950 0.0 1024223
04:00sw4795100 0.8 1021349
07:00+1˚ssw3792100 2.1 1019278
10:00+2˚ssw4896100 2.0 1018352
13:00+2˚ssw3597100 3.6 1016229
16:00+2˚sw2298100 0.4 1016101
19:00+2˚ssw2298100 2.0 101772
22:00+2˚sw1199100 0.8 101833
2 december, wed
wed201:00+2˚sw1199100 1.6 101832
04:00+2˚sse0199100 0.9 101825
07:00+2˚ne1198100 1.1 101938
10:00+3˚ne1295100 0.1 1020108
13:00+4˚nne229299 0.2 1019269
16:00+3˚nne129599 0.1 101887
19:00+1˚e119473 0.2 101929
22:00+1˚ene019380 0.0 102028